• In Belarus
  • List of Countries
  • For 7 days
  • Water Temperature
  • Satellite Maps
  • Weather Map
  • Weather Widgets
  • user-avatar
    Login

    Hourly Weather Worb

    Today, 13 December, Wednesday

    Time Temperature Precipitation Wind Pressure Humidity
    00:00 -5°C° 0 mm 2 mps 711 mmHg 90%
    01:00 -5°C° 0 mm 2 mps 711 mmHg 90%
    02:00 -5°C° 0 mm 2 mps 711 mmHg 88%
    03:00 -6°C° 0 mm 2 mps 711 mmHg 85%
    04:00 -6°C° 0 mm 2 mps 711 mmHg 83%
    05:00 -6°C° 0 mm 2 mps 711 mmHg 82%
    06:00 -6°C° 0 mm 2 mps 711 mmHg 81%
    07:00 -6°C° 0 mm 2 mps 711 mmHg 80%
    08:00 -5°C° 0 mm 2 mps 710 mmHg 78%
    09:00 -3°C° 0 mm 2 mps 710 mmHg 75%
    10:00 -2°C° 0 mm 2 mps 710 mmHg 73%
    11:00 -1°C° 0 mm 2 mps 709 mmHg 71%
    12:00 +1°C° 0 mm 3 mps 708 mmHg 68%
    13:00 +3°C° 0 mm 3 mps 707 mmHg 65%
    14:00 +3°C° 0.1 mm 3 mps 707 mmHg 68%
    15:00 +2°C° 0.1 mm 3 mps 706 mmHg 71%
    16:00 +1°C° 0.1 mm 4 mps 706 mmHg 74%
    17:00 +1°C° 0.4 mm 4 mps 706 mmHg 77%
    18:00 +1°C° 0.4 mm 4 mps 705 mmHg 80%
    19:00 +1°C° 0.4 mm 4 mps 705 mmHg 84%
    20:00 +3°C° 0.6 mm 4 mps 704 mmHg 84%
    21:00 +3°C° 0.6 mm 4 mps 703 mmHg 85%
    22:00 +2°C° 0.6 mm 5 mps 703 mmHg 86%
    23:00 +3°C° 0.7 mm 5 mps 703 mmHg 86%

    Tomorrow, 14 December, Thursday

    Time Temperature Precipitation Wind Pressure Humidity
    00:00 +3°C° 0.7 mm 6 mps 703 mmHg 87%
    01:00 +4°C° 0.7 mm 6 mps 703 mmHg 87%
    02:00 +4°C° 0.4 mm 6 mps 703 mmHg 88%
    03:00 +4°C° 0.4 mm 6 mps 703 mmHg 88%
    04:00 +4°C° 0.4 mm 6 mps 703 mmHg 89%
    05:00 +3°C° 0.5 mm 6 mps 703 mmHg 89%
    06:00 +3°C° 0.5 mm 6 mps 704 mmHg 89%
    07:00 +2°C° 0.5 mm 6 mps 704 mmHg 89%
    08:00 +2°C° 0.6 mm 5 mps 704 mmHg 89%
    09:00 +3°C° 0.6 mm 4 mps 704 mmHg 90%
    10:00 +3°C° 0.6 mm 4 mps 705 mmHg 90%
    11:00 +3°C° 0.6 mm 4 mps 704 mmHg 90%
    12:00 +3°C° 0.6 mm 3 mps 704 mmHg 90%
    13:00 +3°C° 0.6 mm 3 mps 703 mmHg 90%
    14:00 +3°C° 0.8 mm 3 mps 702 mmHg 90%
    15:00 +3°C° 0.8 mm 3 mps 702 mmHg 90%
    16:00 +3°C° 0.8 mm 3 mps 701 mmHg 90%
    17:00 +3°C° 0.5 mm 4 mps 700 mmHg 88%
    18:00 +2°C° 0.5 mm 5 mps 700 mmHg 86%
    19:00 +2°C° 0.5 mm 5 mps 699 mmHg 85%
    20:00 +2°C° 1 mm 5 mps 699 mmHg 85%
    21:00 +2°C° 1 mm 5 mps 699 mmHg 86%
    22:00 +3°C° 1 mm 6 mps 698 mmHg 87%
    23:00 +3°C° 1.6 mm 5 mps 698 mmHg 88%

    Day after tomorrow, 15 December, Friday

    Time Temperature Precipitation Wind Pressure Humidity
    00:00 +3°C° 1.6 mm 5 mps 698 mmHg 89%
    01:00 +3°C° 1.6 mm 5 mps 698 mmHg 90%
    02:00 +2°C° 1.7 mm 5 mps 698 mmHg 91%
    03:00 +3°C° 1.7 mm 4 mps 698 mmHg 92%
    04:00 +2°C° 1.7 mm 3 mps 699 mmHg 93%
    05:00 +2°C° 0.7 mm 3 mps 699 mmHg 93%
    06:00 +1°C° 0.7 mm 3 mps 699 mmHg 92%
    07:00 +1°C° 0.7 mm 3 mps 699 mmHg 92%
    08:00 +2°C° 0.3 mm 2 mps 699 mmHg 91%
    09:00 +2°C° 0.3 mm 2 mps 700 mmHg 90%
    10:00 +2°C° 0.3 mm 2 mps 700 mmHg 89%
    11:00 +2°C° 0.1 mm 2 mps 699 mmHg 87%
    12:00 +1°C° 0.1 mm 3 mps 699 mmHg 85%
    13:00 +2°C° 0.1 mm 3 mps 699 mmHg 83%
    14:00 +1°C° 0 mm 3 mps 699 mmHg 84%
    15:00 +1°C° 0 mm 3 mps 699 mmHg 86%
    16:00 +1°C° 0 mm 2 mps 699 mmHg 87%
    17:00 -1°C° 0 mm 2 mps 699 mmHg 87%
    18:00 -1°C° 0 mm 2 mps 699 mmHg 87%
    19:00 -2°C° 0 mm 2 mps 699 mmHg 87%
    20:00 -2°C° 0.3 mm 2 mps 699 mmHg 87%
    21:00 -2°C° 0.3 mm 2 mps 699 mmHg 87%
    22:00 -2°C° 0.3 mm 2 mps 700 mmHg 87%
    23:00 -2°C° 0.6 mm 3 mps 700 mmHg 89%

    16 December, Saturday

    Time Temperature Precipitation Wind Pressure Humidity
    00:00 -1°C° 0.6 mm 3 mps 700 mmHg 91%
    01:00 -1°C° 0.6 mm 3 mps 701 mmHg 93%
    02:00 -1°C° 0.4 mm 3 mps 702 mmHg 93%
    03:00 -1°C° 0.4 mm 3 mps 702 mmHg 93%
    04:00 -1°C° 0.4 mm 3 mps 703 mmHg 93%
    05:00 -1°C° 0.2 mm 3 mps 703 mmHg 93%
    06:00 -1°C° 0.2 mm 2 mps 704 mmHg 93%
    07:00 -2°C° 0.2 mm 2 mps 704 mmHg 93%
    08:00 -1°C° 0.4 mm 2 mps 705 mmHg 93%
    09:00 -1°C° 0.4 mm 2 mps 706 mmHg 92%
    10:00 -1°C° 0.4 mm 3 mps 706 mmHg 92%
    11:00 -1°C° 0.6 mm 3 mps 706 mmHg 91%
    12:00 -1°C° 0.6 mm 2 mps 707 mmHg 91%
    13:00 -1°C° 0.6 mm 2 mps 707 mmHg 91%
    14:00 -1°C° 0.3 mm 2 mps 707 mmHg 91%
    15:00 -1°C° 0.3 mm 2 mps 708 mmHg 91%
    16:00 +1°C° 0.3 mm 1 mps 708 mmHg 92%
    17:00 0°C° 0.1 mm 1 mps 709 mmHg 92%
    18:00 -1°C° 0.1 mm 1 mps 709 mmHg 93%
    19:00 -2°C° 0.1 mm 1 mps 710 mmHg 94%
    20:00 -2°C° 0.1 mm 1 mps 710 mmHg 94%
    21:00 -3°C° 0.1 mm 1 mps 711 mmHg 94%
    22:00 -3°C° 0.1 mm 1 mps 711 mmHg 94%
    23:00 -4°C° 0 mm 1 mps 712 mmHg 94%

    17 December, Sunday

    Time Temperature Precipitation Wind Pressure Humidity
    00:00 -4°C° 0 mm 1 mps 712 mmHg 93%
    01:00 -4°C° 0 mm 1 mps 713 mmHg 93%
    02:00 -6°C° 0 mm 1 mps 713 mmHg 92%
    03:00 -6°C° 0 mm 1 mps 713 mmHg 92%
    04:00 -7°C° 0 mm 1 mps 714 mmHg 91%
    05:00 -7°C° 0 mm 1 mps 714 mmHg 91%
    06:00 -6°C° 0 mm 1 mps 715 mmHg 90%
    07:00 -6°C° 0 mm 1 mps 715 mmHg 90%
    08:00 -4°C° 0 mm 1 mps 716 mmHg 89%
    09:00 -3°C° 0 mm 1 mps 716 mmHg 88%
    10:00 -2°C° 0 mm 1 mps 717 mmHg 87%
    11:00 -1°C° 0 mm 1 mps 717 mmHg 85%
    12:00 0°C° 0 mm 1 mps 717 mmHg 84%
    13:00 +1°C° 0 mm 1 mps 717 mmHg 82%
    14:00 0°C° 0 mm 1 mps 717 mmHg 84%
    15:00 0°C° 0 mm 1 mps 717 mmHg 87%
    16:00 -1°C° 0 mm 1 mps 717 mmHg 89%
    17:00 -2°C° 0 mm 1 mps 718 mmHg 90%
    18:00 -3°C° 0 mm 1 mps 718 mmHg 90%
    19:00 -6°C° 0 mm 1 mps 719 mmHg 91%
    20:00 -6°C° 0 mm 1 mps 719 mmHg 90%
    21:00 -6°C° 0 mm 1 mps 720 mmHg 89%
    22:00 -6°C° 0 mm 1 mps 720 mmHg 88%
    23:00 -6°C° 0 mm 1 mps 720 mmHg 87%

    18 December, Monday

    Time Temperature Precipitation Wind Pressure Humidity
    00:00 -7°C° 0 mm 2 mps 720 mmHg 86%
    01:00 -7°C° 0 mm 2 mps 720 mmHg 85%
    02:00 -7°C° 0 mm 2 mps 720 mmHg 84%
    03:00 -6°C° 0 mm 2 mps 720 mmHg 84%
    04:00 -6°C° 0 mm 2 mps 720 mmHg 83%
    05:00 -5°C° 0.1 mm 2 mps 720 mmHg 84%
    06:00 -4°C° 0.1 mm 2 mps 719 mmHg 85%
    07:00 -3°C° 0.1 mm 2 mps 719 mmHg 86%
    08:00 -3°C° 0.1 mm 2 mps 719 mmHg 86%
    09:00 -2°C° 0.1 mm 2 mps 719 mmHg 87%
    10:00 -1°C° 0.1 mm 2 mps 719 mmHg 87%
    11:00 -1°C° 0.4 mm 2 mps 718 mmHg 88%
    12:00 0°C° 0.4 mm 3 mps 717 mmHg 89%
    13:00 +1°C° 0.4 mm 3 mps 716 mmHg 90%
    14:00 +1°C° 0.9 mm 3 mps 716 mmHg 91%
    15:00 +1°C° 0.9 mm 3 mps 715 mmHg 91%
    16:00 +1°C° 0.9 mm 3 mps 715 mmHg 92%
    17:00 +1°C° 0.7 mm 3 mps 715 mmHg 93%
    18:00 +1°C° 0.7 mm 3 mps 715 mmHg 93%
    19:00 +2°C° 0.7 mm 2 mps 715 mmHg 94%
    20:00 +2°C° 0.4 mm 2 mps 715 mmHg 94%
    21:00 +2°C° 0.4 mm 2 mps 715 mmHg 95%
    22:00 +2°C° 0.4 mm 2 mps 716 mmHg 95%
    23:00 +2°C° 0.3 mm 2 mps 716 mmHg 95%
    Show more